Location: Unspecified
(0.0000°N, 0.0000°E)
Time: 04:49:09
(UTC+00:00)

Transit 2A - All Passes

Search period start: 21 May 2026 00:00
Search period end: 31 May 2026 00:00
Orbit: 594 x 950 km, 66.7° (Epoch: 20 May)

Date Brightness Start Highest point End Pass type
(mag) Time Alt. Az. Time Alt. Az. Time Alt. Az.
21 May - 00:40:58 10° NNW 00:45:16 69° ENE 00:49:33 10° SSE night (unlit)
21 May - 11:31:39 10° SSE 11:35:39 18° ESE 11:39:40 10° ENE daylight
21 May - 13:12:38 10° SW 13:18:30 43° WNW 13:24:22 10° N daylight
22 May - 00:05:01 10° N 00:08:54 33° ENE 00:12:47 10° SE night (unlit)
22 May - 12:35:54 10° SSW 12:42:08 72° WNW 12:48:20 10° NNE daylight
22 May - 23:29:44 10° NNE 23:32:31 17° ENE 23:35:19 10° ESE night (unlit)
23 May - 01:12:18 10° WNW 01:15:12 18° WSW 01:18:07 10° SSW night (unlit)
23 May - 11:59:31 10° SSW 12:05:44 70° ESE 12:11:57 10° NNE daylight
24 May - 00:34:55 10° NW 00:38:49 34° WSW 00:42:46 10° S night (unlit)
24 May - 11:23:30 10° S 11:29:22 42° ESE 11:35:11 10° NE daylight
24 May - 13:08:06 10° WSW 13:12:12 18° WNW 13:16:17 10° NNW daylight
24 May - 23:58:10 10° NNW 00:02:27 72° WSW 00:06:46 10° SSE night (unlit)
25 May - 10:47:57 10° SSE 10:52:57 25° ESE 10:57:57 10° ENE daylight
25 May - 12:30:24 10° SW 12:35:48 30° WNW 12:41:09 10° N daylight
25 May - 23:21:54 10° N 23:26:05 53° ENE 23:30:18 10° SSE night (unlit)
26 May - 10:13:14 10° SE 10:16:33 15° ESE 10:19:50 10° ENE daylight
26 May - 11:53:21 10° SW 11:59:25 51° WNW 12:05:24 10° N daylight
26 May - 22:46:07 10° NNE 22:49:43 26° ENE 22:53:21 10° SE night (unlit)
27 May - 00:31:10 10° W 00:32:25 11° WSW 00:33:41 10° SW night (unlit)
27 May - 11:16:45 10° SSW 11:23:02 84° WNW 11:29:16 10° NNE daylight
27 May - 22:11:14 10° NE 22:13:20 13° ENE 22:15:28 10° E night (unlit)
27 May - 23:52:41 10° WNW 23:56:01 22° WSW 23:59:24 10° SSW night (unlit)
28 May - 10:40:29 10° S 10:46:39 59° ESE 10:52:45 10° NNE daylight
28 May - 12:27:08 10° W 12:29:30 12° WNW 12:31:51 10° NW daylight
28 May - 23:15:33 10° NW 23:19:38 43° WSW 23:23:46 10° S night (unlit)
29 May - 10:04:36 10° S 10:10:15 35° ESE 10:15:51 10° NE daylight
29 May - 11:48:27 10° WSW 11:53:06 22° WNW 11:57:40 10° NNW daylight
29 May - 22:38:59 10° NNW 22:43:16 88° ENE 22:47:36 10° SSE night (unlit)
30 May - 09:29:15 10° SSE 09:33:50 21° ESE 09:38:24 10° ENE daylight
30 May - 11:11:01 10° SW 11:16:42 36° WNW 11:22:17 10° N daylight
30 May - 22:02:51 10° N 22:06:54 42° ENE 22:11:00 10° SE night (unlit)
